Showing default

RCM 1, 44322

Orbit data source: Space-Track

RCM 1, 44322 is a payload satellite owned by CSA (CA) in SSO that was launched on Wed, 12 Jun 2019 UTC via an FALCON 9 launch vehicle from the Air Force Western Test Range (AFWTR). Payload-class satellites include a variety of spacecraft equipped with specific instruments for various scientific and technological missions. These include communications satellites like Starlink; space stations such as the ISS; scientific satellites like the Hubble; Earth observation satellites from companies like Planet Labs, Umbra, and HawkEye 360; GPS; miniature CubeSats for education and research; and military/defense satellites.

Loading next visibility...
Identifier
44322, 2019-033A
Orbit
SSO
Country
Flag of CACA
Related business
Manufacturer
BALM/MAXAR
Mission
Operational Civil Radar Imaging
Bus & Motor
MAC-200, Unknown motor
Mass
1,450 kg wet, ~1,400 kg dry
Launch date (UTC)
2019-06-12 (7 years ago)
Launch vehicle
FALCON 9
Launch site
Air Force Western Test Range (AFWTR)
Object type
Payload
Rocket body
Debris
Shape & HBR
Box + 2 Pan, 3.5 m
Radar Cross Section
10.097 m², Large (>1 m²)

Expand to show TLE details & history
Last TLE update: 11 hours ago

TLE from 11 hours ago
0 RCM 1
1 44322U 19033A   26173.16253252 -.00000074  00000-0 -17345-5 0  9994
2 44322  97.7612 180.5377 0001417  91.5344 268.6038 14.92587817382827
Epoch: 2026-06-22T03:54Z
TLE epoch observation values (Epoch: 2026-06-22T03:54:02.809Z)
Latitude
0.00001°
Longitude
-148.32641°
Altitude
592.937 km
Speed
7.563 km/s
True Right ascension
12h 02m 09s
True Declination
0° 00' 00"
Sunlit
Object was in daylight at epoch
Visualization orbit readout
Latitude
Unknown
Longitude
Unknown
Altitude
Unknown
Speed
Unknown
Apparent Right ascension
Unknown
Apparent Declination
Unknown
Sunlit
N/A
Visualization observer readout
Local Sidereal Time
02:13:22
Azimuth
Unknown
Elevation
Unknown
Doppler factor
Unknown
Orbital elements
Apogee altitude
587.875 km
Perigee altitude
585.901 km
Semi-major axis
6,965.025 km
Eccentricity
0.00014
Inclination
97.7612°
RAAN
180.5377°
Arg. of periapsis
91.5344°
True anomaly
268.58757°
Mean anomaly
268.6038°
Eccentric anomaly
268.59568°
Mean motion
3.73387 °/min
Orbital period
96.41 mins
BSTAR
-0.0000017345
Loading maneuver chart data...
Computing Atmospheric mass density...
Loading historical data...
Loading historical data...
Loading historical data...
Loading historical data...
Loading historical data...
Loading historical data...
Loading historical data...
Other satellites on launch #33 in the year 2019 (2019-06-12 UTC)

Documentation

Showing up to 5 results
|